This is the latest recevied weather packets stored in our database for station/object IK2CHZ-3. If no packets are shown the sender has not sent any weather packets the latest 10 day(s).
| Time | Temp. | Humidity | Pressure | Rain* | Wind** | Luminosity | Snow |
|---|---|---|---|---|---|---|---|
| 1778104579 | 14.44° C | 77% | 1010.5 hPa | 0 mm | - | - | - |
| 1778103920 | 14.44° C | 76% | 1010.3 hPa | 0 mm | - | - | - |
| 1778103260 | 15° C | 75% | 1010.4 hPa | 0 mm | - | - | - |
| 1778102599 | 14.44° C | 76% | 1010.4 hPa | 0 mm | - | - | - |
| 1778101940 | 14.44° C | 77% | 1010.3 hPa | 0 mm | - | - | - |
| 1778101279 | 14.44° C | 78% | 1010.2 hPa | 0 mm | - | - | - |
| 1778100619 | 14.44° C | 78% | 1010.3 hPa | 0 mm | - | - | - |
| 1778099958 | 14.44° C | 77% | 1010.2 hPa | 0 mm | - | - | - |
| 1778099299 | 14.44° C | 77% | 1010.1 hPa | 0 mm | - | - | - |
| 1778098640 | 14.44° C | 77% | 1009.9 hPa | 0 mm | - | - | - |
| 1778097980 | 14.44° C | 78% | 1009.9 hPa | 0 mm | - | - | - |
| 1778097319 | 13.89° C | 81% | 1010 hPa | 0 mm | - | - | - |
| 1778096660 | 13.89° C | 82% | 1009.9 hPa | 0 mm | - | - | - |
| 1778095339 | 14.44° C | 79% | 1009.5 hPa | 0 mm | - | - | - |
| 1778094680 | 15° C | 76% | 1009.4 hPa | 0 mm | - | - | - |
| 1778094019 | 15° C | 76% | 1009.2 hPa | 0 mm | - | - | - |
| 1778093360 | 15° C | 76% | 1009 hPa | 0 mm | - | - | - |
| 1778092699 | 15° C | 75% | 1008.8 hPa | 0 mm | - | - | - |
| 1778092040 | 15.56° C | 75% | 1008.7 hPa | 0 mm | - | - | - |
| 1778091379 | 15.56° C | 74% | 1008.5 hPa | 0 mm | - | - | - |
| 1778090719 | 15.56° C | 74% | 1008.3 hPa | 0 mm | - | - | - |
| 1778090059 | 15.56° C | 74% | 1008.1 hPa | 0 mm | - | - | - |
| 1778089400 | 16.11° C | 73% | 1008.1 hPa | 0 mm | - | - | - |
| 1778088739 | 16.11° C | 74% | 1007.8 hPa | 0 mm | - | - | - |
| 1778088080 | 16.67° C | 73% | 1007.8 hPa | 0 mm | - | - | - |
* Rain latest hour (hover to see other rain measurements)
** Current wind speed in m/s (hover to see current wind gust speed)